Temp
11 11 11 9 9 9 9 9 9 8 7 7 6 7 7 8 8 9 9 10 10 10 10 10 10 10 10
11 10 9 9 9 8 8 8 8 8 7 6 6 6 6 7 8 8 9 9 9 9 10 9 9 9 9
9 9 8 8 8 8 7 7 7 7 7 6 6 6 6 6 7 8 8 8 8 9 9 9 9 9 8
9 8 9 8 8 7 6 6 7 6 6 6 6 6 6 6 7 7 7 7 8 8 8 8 8 8 8
8 7 7 7 7 6 5 5 5 6 5 6 6 6 6 6 7 7 7 7 7 7 7 7 8 7 7
8 7 8 7 7 6 5 4 3 4 4 5 5 5 5 5 5 6 6 6 6 6 6 7 7 6 6
9 9 8 9 8 5 4 4 2 3 2 3 4 4 4 4 4 5 5 5 5 5 5 5 5 5 5
9 9 9 9 7 6 5 3 2 1 1 0 2 3 4 4 4 4 4 4 4 4 4 4 4 4 4
8 8 8 7 6 5 4 1 0 1 1 1 1 2 3 3 3 3 3 3 3 3 3 3 3 3 3
6 6 6 6 5 4 4 2 1 -0 1 1 0 1 2 2 2 3 2 2 2 2 2 2 3 3 3
5 5 4 4 4 3 3 2 2 2 1 1 0 0 1 1 2 2 2 2 2 2 2 2 2 2 2
3 2 3 3 3 2 2 1 1 1 1 0 0 -0 -0 -2 0 1 1 1 1 1 1 1 1 1 1
2 3 4 4 2 2 1 1 1 0 0 0 -1 -1 -1 -3 -2 -2 -0 -0 0 0 0 0 1 1 1
3 4 3 2 2 1 1 0 -0 -0 -0 -1 -1 -2 -2 -3 -4 -4 -2 -2 -1 -1 -1 -1 -1 -0 -1
3 2 1 1 1 1 0 -0 -1 -1 -1 -1 -2 -3 -3 -3 -3 -2 -2 -2 -2 -2 -2 -1 -1 -1 -1
2 2 1 1 1 -0 -1 -1 -1 -1 -1 -2 -2 -4 -4 -2 -2 -4 -3 -3 -3 -2 -3 -3 -2 -1 -1
2 1 1 1 0 -1 -1 -1 -2 -1 -2 -2 -3 -4 -6 -7 -2 -3 -2 -3 -3 -3 -3 -3 -5 -2 -2
Height
825 826 829 832 832 831 833 829 829 830 830 827 824 825 825 826 826 824 824 826 827 828 830 829 829 831 832
820 824 827 828 829 830 831 829 823 825 825 826 824 822 822 822 821 823 825 824 824 825 826 826 826 828 830
816 821 823 825 828 828 829 825 824 823 821 823 822 820 819 819 818 818 818 820 820 821 823 824 824 826 828
811 814 815 820 824 824 828 822 820 819 818 818 817 815 815 815 815 815 815 816 816 816 819 821 821 822 826
806 809 806 811 815 821 820 819 816 815 813 812 811 812 811 812 811 811 813 813 815 816 816 818 820 820 822
801 802 799 806 808 813 814 815 812 811 813 811 809 809 809 808 808 811 811 811 812 814 814 815 818 818 822
790 795 798 800 805 807 808 808 809 811 811 809 808 808 807 805 806 810 812 811 810 812 814 815 817 817 819
787 795 797 796 802 803 805 808 810 811 810 809 809 808 806 804 805 809 812 810 809 810 812 813 813 814 818
786 790 789 791 797 800 804 808 808 808 807 807 805 806 804 802 803 808 809 809 809 809 810 811 811 811 813
782 784 783 787 791 795 799 801 802 803 802 804 804 804 801 799 802 803 805 807 807 808 809 810 809 807 811
777 780 783 785 789 793 795 797 797 796 798 799 802 802 802 800 800 800 802 803 801 803 806 808 810 807 807
774 778 780 783 788 791 794 797 796 796 799 801 802 800 801 802 800 800 800 800 798 800 803 806 806 807 804
767 770 775 781 785 786 790 793 794 795 796 798 798 799 800 802 801 799 798 799 798 797 801 804 803 804 802
761 765 769 772 776 780 784 788 789 789 791 794 798 799 797 798 797 797 796 796 795 796 798 800 801 800 800
752 759 763 767 770 772 776 783 784 783 787 790 794 795 796 796 793 792 792 792 792 794 797 796 796 796 795
746 749 752 760 765 771 774 775 775 779 783 785 788 795 794 789 787 787 789 789 791 791 793 792 790 792 790
739 743 747 754 759 762 765 771 774 777 777 781 783 788 794 791 787 786 787 787 788 790 790 789 789 788 787
Wind_Speed
13 15 16 13 8 7 8 7 7 8 8 10 7 8 7 8 8 7 10 13 9 8 6 3 4 3 7
16 17 14 12 10 9 9 9 7 8 8 9 7 7 6 7 8 9 9 6 10 11 10 7 7 8 7
12 15 11 10 9 9 11 9 8 8 8 9 7 7 8 9 8 9 11 11 9 14 13 11 12 10 8
15 13 13 10 11 10 14 9 9 7 5 6 6 6 8 9 10 9 9 11 10 11 11 11 13 10 8
15 11 11 12 14 12 10 8 8 8 6 7 7 8 8 9 9 8 7 6 9 10 11 11 13 13 12
19 12 17 17 15 15 11 5 2 6 6 8 9 8 9 9 6 8 9 7 7 8 9 11 13 11 9
22 20 21 20 18 15 11 7 7 7 7 7 6 6 5 5 7 9 9 9 8 8 8 8 10 11 11
18 23 19 14 13 8 8 9 9 10 9 4 4 6 5 4 6 10 11 10 9 9 10 11 12 11 9
22 23 18 15 13 10 11 11 7 6 7 4 4 5 5 3 5 8 12 12 10 10 10 10 10 9 9
24 23 20 16 14 12 13 16 7 5 10 6 3 3 1 1 3 3 6 12 12 12 11 11 11 10 11
27 22 19 17 15 14 13 13 11 7 5 8 3 3 3 2 3 4 5 6 6 9 12 14 12 12 11
26 23 21 20 17 12 10 11 11 9 5 8 5 6 4 3 4 3 4 4 5 6 9 12 15 14 13
30 28 24 19 16 15 13 11 10 9 10 11 12 11 10 6 5 4 3 3 6 7 8 9 12 16 14
32 27 22 22 22 19 16 14 13 12 11 10 10 12 11 12 12 13 11 6 2 3 6 8 12 13 14
31 28 25 25 25 23 18 17 11 7 10 9 10 11 12 13 11 14 14 13 10 14 17 18 15 15 16
30 30 30 28 25 23 21 19 17 15 12 10 9 7 8 10 14 16 13 11 7 9 12 13 16 14 16
33 31 29 28 27 27 24 20 18 16 13 11 11 10 2 1 2 8 8 4 2 4 7 12 12 9 7
Wind_Direction
203 211 210 217 214 227 249 257 273 285 291 291 274 270 276 276 277 264 257 249 244 239 246 244 200 158 173
197 200 206 213 225 242 254 261 260 274 289 296 289 274 290 266 258 258 264 260 225 233 223 221 213 196 182
179 197 204 210 235 253 257 261 275 282 277 285 289 275 264 258 257 258 252 253 238 221 219 231 209 187 190
185 185 191 209 233 246 254 263 276 281 265 265 284 282 263 253 256 263 262 249 247 239 228 216 199 203 197
184 184 179 195 213 234 243 272 281 250 237 250 258 265 256 252 243 239 244 235 225 221 210 191 196 196 192
196 205 199 209 207 215 231 243 309 244 283 277 275 248 240 232 228 230 228 221 217 213 205 205 203 189 193
198 213 212 208 209 209 225 235 223 247 285 274 245 258 247 238 223 229 230 226 220 221 216 206 201 200 207
216 229 220 205 214 230 233 233 240 253 253 260 262 276 254 261 245 236 236 236 235 231 230 226 218 211 225
214 214 202 193 203 208 200 196 225 230 214 239 253 279 281 269 266 251 237 231 231 232 230 227 223 214 215
196 191 190 191 199 207 214 204 187 211 212 206 239 276 335 211 234 252 241 233 231 234 232 230 225 218 223
188 186 187 191 197 204 213 217 210 222 202 194 239 236 254 275 273 250 252 240 236 238 239 233 223 230 230
186 188 191 195 198 201 207 217 223 233 244 230 246 230 232 296 272 276 234 258 256 254 251 245 233 224 235
194 197 203 204 194 196 204 215 223 234 240 241 247 251 246 233 275 274 316 271 252 254 266 254 233 224 228
202 203 198 194 196 201 202 211 218 224 233 243 253 253 247 245 245 265 268 267 302 221 220 245 240 230 229
202 199 195 195 197 196 201 203 204 191 207 221 234 241 253 260 262 264 275 277 277 267 266 269 253 244 241
202 199 193 196 196 198 205 207 204 208 208 210 219 243 271 272 256 258 262 277 291 265 252 263 270 250 247
206 201 197 200 200 201 202 208 212 212 209 210 212 211 190 274 303 251 231 253 276 294 265 252 264 260 240